Weather History for KHWO - August, 2014

Change the Weather History Date:

Sunday, August 17, 2014

  Actual Average (KFLL) Record (KFLL)
Temperature  
Mean Temperature 84 °F 85 °F  
Max Temperature 91 °F 90 °F 98 °F (1924)
Min Temperature 77 °F 79 °F 66 °F (1974)
Degree Days  
Heating Degree Days 0 0  
Month to date heating degree days 0  
Since 1 June heating degree days 0  
Since 1 July heating degree days 0  
Cooling Degree Days 19 20  
Month to date cooling degree days 340  
Year to date cooling degree days 2899  
Since 1 June cooling degree days 1481  
Growing Degree Days 34 (Base 50)    
Moisture  
Dew Point 75 °F    
Average Humidity 75    
Maximum Humidity 97    
Minimum Humidity 57    
Precipitation  
Precipitation 0.00 in 0.23 in 1.98 in (1941)
Month to date precipitation 3.87  
Year to date precipitation 37.50  
Snow  
Snow 0.00 in - - ()
Month to date snowfall  
Since 1 June snowfall  
Since 1 July snowfall  
Snow Depth -    
Sea Level Pressure  
Sea Level Pressure 30.09 in    
Wind  
Wind Speed 4 mph (ESE)    
Max Wind Speed 13 mph    
Max Gust Speed -    
Visibility 10 miles    
Events Thunderstorm    
T = Trace of Precipitation, MM = Missing Value Source: NWS Daily Summary

Daily Weather History Graph

Daily Weather History Graph

Search for Another Location

Airport or City:

Trip Planner

Search our weather history database for the weather conditions in past years. The results will help you decide how hot, cold, wet, or windy it might be!

Date:

Astronomy

Aug. 17, 2014 Rise Set
Actual Time 6:54 AM EDT 7:55 PM EDT
Civil Twilight 6:30 AM EDT 8:18 PM EDT
Nautical Twilight 6:02 AM EDT 8:47 PM EDT
Astronomical Twilight 5:33 AM EDT 9:16 PM EDT
Moon 12:21 AM EDT (8/17) 1:53 PM EDT (8/17)
Length of Visible Light 13h 48m
Length of Day
13h 00m
Waning Gibbous, 48% of the Moon is Illuminated
Aug 17
Waning Gibbous
Aug 25
New
Sep 2
First Quarter
Sep 8
Full
Sep 15
Last Quarter

Hourly Weather History & Observations

Time (EDT) Temp. Heat Index Dew Point Humidity Pressure Visibility Wind Dir Wind Speed Gust Speed Precip Events Conditions
12:53 AM 77.0 °F - 75.9 °F 96% 30.11 in 10.0 mi Calm Calm - N/A   Clear
1:53 AM 77.0 °F - 75.9 °F 96% 30.09 in 10.0 mi NNW 3.5 mph - N/A   Clear
3:53 AM 77.0 °F - 75.0 °F 94% 30.07 in 10.0 mi NNW 3.5 mph - N/A   Partly Cloudy
4:53 AM 78.1 °F - 75.9 °F 93% 30.08 in 10.0 mi NNW 3.5 mph - N/A   Clear
5:53 AM 78.1 °F - 75.9 °F 93% 30.08 in 10.0 mi Calm Calm - N/A   Clear
6:53 AM 77.0 °F - 75.9 °F 96% 30.09 in 10.0 mi North 3.5 mph - N/A   Clear
7:53 AM 79.0 °F - 78.1 °F 97% 30.11 in 10.0 mi Calm Calm - N/A   Scattered Clouds
8:53 AM 82.9 °F 94.8 °F 80.1 °F 91% 30.12 in 10.0 mi Calm Calm - N/A   Clear
9:53 AM 88.0 °F 101.3 °F 78.1 °F 72% 30.12 in 10.0 mi SE 6.9 mph - N/A   Partly Cloudy
10:53 AM 90.0 °F 102.5 °F 77.0 °F 65% 30.13 in 10.0 mi SSE 6.9 mph - N/A   Scattered Clouds
11:53 AM 89.1 °F 100.2 °F 75.9 °F 65% 30.12 in 10.0 mi South 6.9 mph - N/A   Partly Cloudy
12:53 PM 91.0 °F 104.2 °F 77.0 °F 63% 30.11 in 10.0 mi SSE 12.7 mph - N/A   Partly Cloudy
1:51 PM 91.4 °F 102.5 °F 75.2 °F 59% 30.10 in 10.0 mi SE 10.4 mph - N/A Thunderstorm Clear
1:53 PM 91.9 °F 103.9 °F 75.9 °F 59% 30.10 in 10.0 mi ESE 11.5 mph - N/A Thunderstorm Partly Cloudy
2:53 PM 90.0 °F 97.9 °F 73.0 °F 57% 30.09 in 10.0 mi North 12.7 mph - N/A   Scattered Clouds
3:53 PM 91.0 °F 101.6 °F 75.0 °F 59% 30.09 in 10.0 mi NE 8.1 mph - N/A   Scattered Clouds
4:53 PM 88.0 °F 96.5 °F 73.9 °F 63% 30.08 in 10.0 mi East 6.9 mph - N/A   Partly Cloudy
5:53 PM 89.1 °F 97.0 °F 73.0 °F 59% 30.06 in 10.0 mi SE 10.4 mph - N/A   Clear
6:53 PM 87.1 °F 94.5 °F 73.0 °F 63% 30.07 in 10.0 mi ESE 9.2 mph - N/A   Clear
7:53 PM 84.9 °F 91.4 °F 73.0 °F 67% 30.08 in 10.0 mi East 4.6 mph - N/A   Clear
8:53 PM 84.9 °F 92.1 °F 73.9 °F 69% 30.08 in 10.0 mi ESE 5.8 mph - N/A   Clear
9:53 PM 84.0 °F 91.2 °F 73.9 °F 72% 30.08 in 10.0 mi SE 5.8 mph - N/A   Clear
10:53 PM 82.9 °F 89.4 °F 73.9 °F 74% 30.10 in 10.0 mi ESE 5.8 mph - N/A   Clear
11:53 PM 82.9 °F 89.4 °F 73.9 °F 74% 30.11 in 10.0 mi ESE 3.5 mph - N/A   Clear